Simultaneous Nadir Overpasses (SNOs) Predictions

Prediction of SNOs between GOES-16 and AQUA Satellite Orbit:

Table of predicted SNOs for the next 14.0 days since TLE Epoch: 5/16/2025
Index Date Time (GOES-16) GOES-16 Lat,Lon AQUA Lat,Lon Distance(km) Time Diff (sec)
1 05/17/2025 20:39:47 0.00, -94.40 0.86, -90.37 458.68 80
2 05/18/2025 09:01:38 0.00, -94.66 0.08, -95.01 40.38 80
3 05/20/2025 20:58:11 -0.00, -95.98 0.24, -94.80 134.09 80
4 05/21/2025 09:20:03 0.01, -96.24 0.69, -99.45 364.40 80
5 05/23/2025 08:57:14 0.00, -97.29 -0.56, -94.54 311.67 80
6 05/23/2025 21:19:15 -0.01, -97.56 -0.38, -99.23 189.46 80
7 05/25/2025 20:56:26 0.00, -98.61 0.91, -94.33 486.90 80
8 05/26/2025 09:18:18 0.00, -98.87 0.00, -98.98 11.77 80
9 05/28/2025 21:14:48 0.00,-100.19 0.28, -98.75 163.29 80
10 05/29/2025 09:36:39 -0.00,-100.45 0.62,-103.40 334.70 80
